Time,TemperatureF,DewpointF,PressureIn,WindDirection,WindDirectionDegrees,WindSpeedMPH,WindSpeedGustMPH,Humidity,HourlyPrecipIn,Conditions,Clouds,dailyrainin,SoftwareType,DateUTC
2013-05-26 00:00:00,36.0,35.0,30.02,North,360,6.0,6.0,95,0.00,,,0.00,Rainwise IP-100,2013-05-26 04:00:00,
2013-05-26 00:01:00,36.0,35.0,30.02,NNE,22,4.0,6.0,95,0.00,,,0.00,Rainwise IP-100,2013-05-26 04:01:00,
2013-05-26 00:06:00,36.0,35.0,30.01,NNE,22,3.0,9.0,95,0.00,,,0.00,Rainwise IP-100,2013-05-26 04:06:00,
2013-05-26 00:11:00,36.0,35.0,30.01,NE,45,5.0,9.0,95,0.00,,,0.00,Rainwise IP-100,2013-05-26 04:11:00,
2013-05-26 00:16:00,37.0,36.0,30.01,ENE,67,8.0,10.0,96,0.00,,,0.00,Rainwise IP-100,2013-05-26 04:16:00,
2013-05-26 00:21:00,37.0,36.0,30.01,North,360,9.0,9.0,96,0.00,,,0.00,Rainwise IP-100,2013-05-26 04:21:00,
2013-05-26 00:26:00,37.0,36.0,30.00,NNE,22,3.0,9.0,96,0.00,,,0.00,Rainwise IP-100,2013-05-26 04:26:00,
2013-05-26 00:31:00,37.0,36.0,30.00,NNE,22,3.0,10.0,96,0.00,,,0.00,Rainwise IP-100,2013-05-26 04:31:00,
2013-05-26 00:36:00,37.0,36.0,30.00,North,360,7.0,14.0,96,0.00,,,0.00,Rainwise IP-100,2013-05-26 04:36:00,
2013-05-26 00:41:00,37.0,36.0,30.00,NNE,22,5.0,12.0,96,0.00,,,0.00,Rainwise IP-100,2013-05-26 04:41:00,
2013-05-26 00:46:00,37.0,36.0,30.00,NE,45,5.0,9.0,96,0.00,,,0.00,Rainwise IP-100,2013-05-26 04:46:00,
2013-05-26 00:51:00,37.0,36.0,30.00,North,360,5.0,12.0,96,0.00,,,0.00,Rainwise IP-100,2013-05-26 04:51:00,
2013-05-26 00:56:00,37.0,36.0,30.00,North,360,11.0,12.0,96,0.00,,,0.00,Rainwise IP-100,2013-05-26 04:56:00,
2013-05-26 01:01:00,37.0,36.0,30.00,NNE,22,5.0,12.0,96,0.00,,,0.00,Rainwise IP-100,2013-05-26 05:01:00,
2013-05-26 01:06:00,37.0,36.0,30.00,North,360,1.0,7.0,96,0.00,,,0.00,Rainwise IP-100,2013-05-26 05:06:00,
2013-05-26 01:11:00,37.0,36.0,30.00,NNE,22,3.0,7.0,96,0.00,,,0.00,Rainwise IP-100,2013-05-26 05:11:00,
2013-05-26 01:16:00,37.0,36.0,29.99,NE,45,6.0,6.0,96,0.00,,,0.00,Rainwise IP-100,2013-05-26 05:16:00,
2013-05-26 01:21:00,37.0,36.0,29.99,NNE,22,7.0,12.0,96,0.00,,,0.00,Rainwise IP-100,2013-05-26 05:21:00,
2013-05-26 01:26:00,37.0,36.0,29.99,NE,45,4.0,12.0,96,0.00,,,0.00,Rainwise IP-100,2013-05-26 05:26:00,
2013-05-26 01:31:00,38.0,37.0,29.98,NNW,337,7.0,12.0,96,0.00,,,0.00,Rainwise IP-100,2013-05-26 05:31:00,
2013-05-26 01:36:00,38.0,37.0,29.98,North,360,5.0,12.0,96,0.00,,,0.00,Rainwise IP-100,2013-05-26 05:36:00,
2013-05-26 01:41:00,38.0,37.0,29.98,NE,45,6.0,9.0,96,0.00,,,0.00,Rainwise IP-100,2013-05-26 05:41:00,
2013-05-26 01:46:00,38.0,37.0,29.98,ENE,67,2.0,17.0,96,0.00,,,0.00,Rainwise IP-100,2013-05-26 05:46:00,
2013-05-26 01:51:00,38.0,37.0,29.98,NNE,22,1.0,10.0,96,0.00,,,0.00,Rainwise IP-100,2013-05-26 05:51:00,
2013-05-26 01:56:00,38.0,37.0,29.98,NE,45,8.0,8.0,96,0.00,,,0.00,Rainwise IP-100,2013-05-26 05:56:00,
2013-05-26 02:01:00,38.0,37.0,29.98,NW,315,6.0,13.0,96,0.00,,,0.00,Rainwise IP-100,2013-05-26 06:01:00,
2013-05-26 02:06:00,38.0,37.0,29.98,North,360,6.0,11.0,96,0.00,,,0.00,Rainwise IP-100,2013-05-26 06:06:00,
2013-05-26 02:11:00,38.0,37.0,29.98,North,360,10.0,13.0,96,0.00,,,0.00,Rainwise IP-100,2013-05-26 06:11:00,
2013-05-26 02:16:00,38.0,37.0,29.98,North,360,6.0,16.0,96,0.00,,,0.00,Rainwise IP-100,2013-05-26 06:16:00,
2013-05-26 02:21:00,38.0,37.0,29.98,NW,315,5.0,16.0,96,0.00,,,0.00,Rainwise IP-100,2013-05-26 06:21:00,
2013-05-26 02:26:00,38.0,37.0,29.98,NE,45,7.0,7.0,96,0.00,,,0.00,Rainwise IP-100,2013-05-26 06:26:00,
2013-05-26 02:31:00,38.0,37.0,29.98,North,360,6.0,7.0,96,0.00,,,0.00,Rainwise IP-100,2013-05-26 06:31:00,
2013-05-26 02:36:00,38.0,37.0,29.98,NNE,22,1.0,7.0,96,0.00,,,0.00,Rainwise IP-100,2013-05-26 06:36:00,
2013-05-26 02:41:00,38.0,37.0,29.97,NW,315,5.0,9.0,96,0.00,,,0.00,Rainwise IP-100,2013-05-26 06:41:00,
2013-05-26 02:46:00,38.0,37.0,29.97,North,360,7.0,9.0,96,0.00,,,0.00,Rainwise IP-100,2013-05-26 06:46:00,
2013-05-26 02:51:00,38.0,37.0,29.97,NNE,22,3.0,7.0,96,0.00,,,0.00,Rainwise IP-100,2013-05-26 06:51:00,
2013-05-26 02:56:00,38.0,37.0,29.97,NNE,22,4.0,8.0,96,0.00,,,0.00,Rainwise IP-100,2013-05-26 06:56:00,
2013-05-26 03:01:00,38.0,37.0,29.97,NW,315,5.0,10.0,96,0.00,,,0.00,Rainwise IP-100,2013-05-26 07:01:00,
2013-05-26 03:06:00,38.0,37.0,29.97,NNW,337,6.0,15.0,96,0.00,,,0.00,Rainwise IP-100,2013-05-26 07:06:00,
2013-05-26 03:11:00,38.0,37.0,29.97,North,360,4.0,12.0,96,0.00,,,0.00,Rainwise IP-100,2013-05-26 07:11:00,
2013-05-26 03:16:00,38.0,37.0,29.97,North,360,1.0,5.0,96,0.00,,,0.00,Rainwise IP-100,2013-05-26 07:16:00,
2013-05-26 03:21:00,38.0,37.0,29.97,NE,45,5.0,5.0,96,0.00,,,0.00,Rainwise IP-100,2013-05-26 07:21:00,
2013-05-26 03:26:00,38.0,37.0,29.97,North,360,1.0,7.0,96,0.00,,,0.00,Rainwise IP-100,2013-05-26 07:26:00,
2013-05-26 03:30:00,38.0,37.0,29.97,NNW,337,7.0,7.0,96,0.00,,,0.00,Rainwise IP-100,2013-05-26 07:30:00,
2013-05-26 03:35:00,38.0,37.0,29.96,NE,45,6.0,18.0,96,0.00,,,0.00,Rainwise IP-100,2013-05-26 07:35:00,
2013-05-26 03:40:00,38.0,37.0,29.96,North,360,2.0,12.0,96,0.00,,,0.00,Rainwise IP-100,2013-05-26 07:40:00,
2013-05-26 03:45:00,38.0,37.0,29.96,North,360,7.0,10.0,96,0.00,,,0.00,Rainwise IP-100,2013-05-26 07:45:00,
2013-05-26 03:50:00,38.0,37.0,29.96,NNW,337,6.0,12.0,96,0.00,,,0.00,Rainwise IP-100,2013-05-26 07:50:00,
2013-05-26 03:55:00,38.0,37.0,29.96,North,360,1.0,8.0,96,0.00,,,0.00,Rainwise IP-100,2013-05-26 07:55:00,
2013-05-26 04:00:00,38.0,37.0,29.96,North,360,3.0,6.0,96,0.00,,,0.00,Rainwise IP-100,2013-05-26 08:00:00,
2013-05-26 04:05:00,38.0,37.0,29.96,NNE,22,5.0,9.0,96,0.00,,,0.00,Rainwise IP-100,2013-05-26 08:05:00,
2013-05-26 04:10:00,38.0,37.0,29.96,NNE,22,3.0,10.0,96,0.00,,,0.00,Rainwise IP-100,2013-05-26 08:10:00,
2013-05-26 04:15:00,38.0,37.0,29.97,North,360,3.0,8.0,96,0.00,,,0.00,Rainwise IP-100,2013-05-26 08:15:00,
2013-05-26 04:20:00,38.0,37.0,29.97,North,360,7.0,8.0,96,0.00,,,0.00,Rainwise IP-100,2013-05-26 08:20:00,
2013-05-26 04:25:00,38.0,37.0,29.96,North,360,4.0,7.0,96,0.00,,,0.00,Rainwise IP-100,2013-05-26 08:25:00,
2013-05-26 04:30:00,38.0,37.0,29.96,North,360,6.0,7.0,96,0.00,,,0.00,Rainwise IP-100,2013-05-26 08:30:00,
2013-05-26 04:35:00,38.0,37.0,29.97,North,360,4.0,8.0,96,0.00,,,0.00,Rainwise IP-100,2013-05-26 08:35:00,
2013-05-26 04:40:00,38.0,37.0,29.97,NW,315,10.0,10.0,96,0.00,,,0.00,Rainwise IP-100,2013-05-26 08:40:00,
2013-05-26 04:45:00,38.0,37.0,29.97,NW,315,6.0,10.0,96,0.00,,,0.00,Rainwise IP-100,2013-05-26 08:45:00,
2013-05-26 04:50:00,38.0,37.0,29.97,NNW,337,6.0,11.0,96,0.00,,,0.00,Rainwise IP-100,2013-05-26 08:50:00,
2013-05-26 04:55:00,38.0,37.0,29.97,NNW,337,6.0,9.0,96,0.00,,,0.00,Rainwise IP-100,2013-05-26 08:55:00,
2013-05-26 05:00:00,38.0,37.0,29.97,North,360,4.0,9.0,96,0.00,,,0.00,Rainwise IP-100,2013-05-26 09:00:00,
2013-05-26 05:05:00,38.0,37.0,29.97,NW,315,8.0,10.0,96,0.00,,,0.00,Rainwise IP-100,2013-05-26 09:05:00,
2013-05-26 05:10:00,38.0,37.0,29.97,NW,315,8.0,9.0,96,0.00,,,0.00,Rainwise IP-100,2013-05-26 09:10:00,
2013-05-26 05:15:00,38.0,37.0,29.98,NNW,337,7.0,9.0,96,0.00,,,0.00,Rainwise IP-100,2013-05-26 09:15:00,
2013-05-26 05:20:00,38.0,37.0,29.98,NNW,337,7.0,7.0,96,0.00,,,0.00,Rainwise IP-100,2013-05-26 09:20:00,
2013-05-26 05:25:00,38.0,37.0,29.98,NW,315,10.0,10.0,96,0.00,,,0.00,Rainwise IP-100,2013-05-26 09:25:00,
2013-05-26 05:30:00,38.0,37.0,29.98,NNW,337,5.0,10.0,96,0.00,,,0.00,Rainwise IP-100,2013-05-26 09:30:00,
2013-05-26 05:35:00,37.0,36.0,29.98,NNW,337,8.0,9.0,96,0.00,,,0.00,Rainwise IP-100,2013-05-26 09:35:00,
2013-05-26 05:40:00,37.0,36.0,29.98,NW,315,6.0,9.0,96,0.00,,,0.00,Rainwise IP-100,2013-05-26 09:40:00,
2013-05-26 05:45:00,38.0,37.0,29.98,NNW,337,9.0,9.0,96,0.00,,,0.00,Rainwise IP-100,2013-05-26 09:45:00,
2013-05-26 05:50:00,38.0,37.0,29.98,NW,315,7.0,13.0,96,0.00,,,0.00,Rainwise IP-100,2013-05-26 09:50:00,
2013-05-26 05:55:00,38.0,37.0,29.98,North,360,6.0,11.0,96,0.00,,,0.00,Rainwise IP-100,2013-05-26 09:55:00,
2013-05-26 06:00:00,38.0,37.0,29.98,North,360,13.0,13.0,96,0.00,,,0.00,Rainwise IP-100,2013-05-26 10:00:00,
2013-05-26 06:05:00,38.0,37.0,29.98,NW,315,8.0,13.0,96,0.00,,,0.00,Rainwise IP-100,2013-05-26 10:05:00,
2013-05-26 06:10:00,38.0,37.0,29.98,NE,45,7.0,10.0,96,0.00,,,0.00,Rainwise IP-100,2013-05-26 10:10:00,
2013-05-26 06:15:00,38.0,37.0,29.99,North,360,3.0,10.0,96,0.00,,,0.00,Rainwise IP-100,2013-05-26 10:15:00,
2013-05-26 06:20:00,38.0,37.0,29.99,NNW,337,2.0,6.0,96,0.00,,,0.00,Rainwise IP-100,2013-05-26 10:20:00,
2013-05-26 06:25:00,38.0,37.0,29.99,NNW,337,2.0,4.0,96,0.00,,,0.00,Rainwise IP-100,2013-05-26 10:25:00,
2013-05-26 06:30:00,38.0,37.0,29.99,North,360,5.0,7.0,96,0.00,,,0.00,Rainwise IP-100,2013-05-26 10:30:00,
2013-05-26 06:35:00,38.0,37.0,29.99,NNW,337,6.0,7.0,96,0.00,,,0.00,Rainwise IP-100,2013-05-26 10:35:00,
2013-05-26 06:40:00,38.0,37.0,29.99,NNW,337,6.0,7.0,96,0.00,,,0.00,Rainwise IP-100,2013-05-26 10:40:00,
2013-05-26 06:45:00,39.0,38.0,29.99,NNW,337,6.0,10.0,96,0.00,,,0.00,Rainwise IP-100,2013-05-26 10:45:00,
2013-05-26 06:50:00,39.0,38.0,29.99,NNW,337,7.0,9.0,96,0.00,,,0.00,Rainwise IP-100,2013-05-26 10:50:00,
2013-05-26 06:55:00,39.0,38.0,30.00,NW,315,7.0,12.0,96,0.00,,,0.00,Rainwise IP-100,2013-05-26 10:55:00,
2013-05-26 07:00:00,39.0,37.0,30.00,NNW,337,15.0,15.0,93,0.00,,,0.00,Rainwise IP-100,2013-05-26 11:00:00,
2013-05-26 07:05:00,40.0,38.0,29.99,North,360,6.0,15.0,93,0.00,,,0.00,Rainwise IP-100,2013-05-26 11:05:00,
2013-05-26 07:10:00,40.0,39.0,29.99,NNW,337,6.0,7.0,95,0.00,,,0.00,Rainwise IP-100,2013-05-26 11:10:00,
2013-05-26 07:15:00,40.0,39.0,29.99,NW,315,12.0,15.0,96,0.00,,,0.00,Rainwise IP-100,2013-05-26 11:15:00,
2013-05-26 07:20:00,40.0,39.0,29.99,NW,315,12.0,15.0,96,0.00,,,0.00,Rainwise IP-100,2013-05-26 11:20:00,
2013-05-26 07:25:00,40.0,38.0,30.00,NNW,337,12.0,15.0,93,0.00,,,0.00,Rainwise IP-100,2013-05-26 11:25:00,
2013-05-26 07:30:00,40.0,38.0,30.00,NNW,337,10.0,16.0,91,0.00,,,0.00,Rainwise IP-100,2013-05-26 11:30:00,
2013-05-26 07:35:00,40.0,38.0,30.00,NW,315,9.0,13.0,91,0.00,,,0.00,Rainwise IP-100,2013-05-26 11:35:00,
2013-05-26 07:40:00,40.0,38.0,30.00,NNE,22,7.0,13.0,93,0.00,,,0.00,Rainwise IP-100,2013-05-26 11:40:00,
2013-05-26 07:45:00,40.0,38.0,30.00,NE,45,7.0,17.0,91,0.00,,,0.00,Rainwise IP-100,2013-05-26 11:45:00,
2013-05-26 07:50:00,40.0,38.0,30.00,NNE,22,9.0,17.0,90,0.00,,,0.00,Rainwise IP-100,2013-05-26 11:50:00,
2013-05-26 07:55:00,41.0,38.0,30.00,NW,315,11.0,15.0,89,0.00,,,0.00,Rainwise IP-100,2013-05-26 11:55:00,
2013-05-26 08:00:00,41.0,38.0,30.00,NW,315,16.0,17.0,89,0.00,,,0.00,Rainwise IP-100,2013-05-26 12:00:00,
2013-05-26 08:05:00,41.0,38.0,30.00,NW,315,16.0,17.0,89,0.00,,,0.00,Rainwise IP-100,2013-05-26 12:05:00,
2013-05-26 08:10:00,41.0,38.0,30.01,NW,315,6.0,17.0,90,0.00,,,0.00,Rainwise IP-100,2013-05-26 12:10:00,
2013-05-26 08:15:00,41.0,39.0,30.01,ENE,67,5.0,12.0,92,0.00,,,0.00,Rainwise IP-100,2013-05-26 12:15:00,
2013-05-26 08:20:00,41.0,39.0,30.01,NE,45,2.0,9.0,91,0.00,,,0.00,Rainwise IP-100,2013-05-26 12:20:00,
2013-05-26 08:25:00,40.0,38.0,30.01,North,360,9.0,15.0,90,0.00,,,0.00,Rainwise IP-100,2013-05-26 12:25:00,
2013-05-26 08:30:00,40.0,38.0,30.01,North,360,1.0,15.0,92,0.00,,,0.00,Rainwise IP-100,2013-05-26 12:30:00,
2013-05-26 08:35:00,40.0,39.0,30.02,North,360,6.0,7.0,94,0.00,,,0.00,Rainwise IP-100,2013-05-26 12:35:00,
2013-05-26 08:40:00,40.0,39.0,30.02,East,90,2.0,8.0,94,0.00,,,0.00,Rainwise IP-100,2013-05-26 12:40:00,
2013-05-26 08:45:00,40.0,38.0,30.02,NW,315,7.0,9.0,93,0.00,,,0.00,Rainwise IP-100,2013-05-26 12:45:00,
2013-05-26 08:50:00,40.0,39.0,30.02,NNW,337,6.0,10.0,96,0.00,,,0.00,Rainwise IP-100,2013-05-26 12:50:00,
2013-05-26 08:55:00,40.0,39.0,30.03,NW,315,9.0,9.0,96,0.00,,,0.00,Rainwise IP-100,2013-05-26 12:55:00,
2013-05-26 09:00:00,40.0,39.0,30.03,NW,315,5.0,9.0,96,0.00,,,0.00,Rainwise IP-100,2013-05-26 13:00:00,
2013-05-26 09:05:00,40.0,39.0,30.03,North,360,8.0,11.0,96,0.00,,,0.00,Rainwise IP-100,2013-05-26 13:05:00,
2013-05-26 09:10:00,40.0,39.0,30.03,NW,315,5.0,11.0,94,0.00,,,0.00,Rainwise IP-100,2013-05-26 13:10:00,
2013-05-26 09:15:00,40.0,39.0,30.02,NW,315,10.0,13.0,95,0.00,,,0.00,Rainwise IP-100,2013-05-26 13:15:00,
2013-05-26 09:20:00,40.0,39.0,30.02,NW,315,9.0,13.0,96,0.00,,,0.00,Rainwise IP-100,2013-05-26 13:20:00,
2013-05-26 09:25:00,40.0,39.0,30.03,North,360,9.0,13.0,96,0.00,,,0.00,Rainwise IP-100,2013-05-26 13:25:00,
2013-05-26 09:30:00,40.0,39.0,30.03,North,360,9.0,10.0,96,0.00,,,0.00,Rainwise IP-100,2013-05-26 13:30:00,
2013-05-26 09:35:00,40.0,39.0,30.03,NW,315,5.0,10.0,96,0.00,,,0.00,Rainwise IP-100,2013-05-26 13:35:00,
2013-05-26 09:40:00,40.0,39.0,30.03,NW,315,9.0,17.0,96,0.00,,,0.00,Rainwise IP-100,2013-05-26 13:40:00,
2013-05-26 09:45:00,40.0,39.0,30.03,NW,315,9.0,15.0,96,0.00,,,0.00,Rainwise IP-100,2013-05-26 13:45:00,
2013-05-26 09:50:00,40.0,39.0,30.03,NW,315,12.0,13.0,96,0.00,,,0.00,Rainwise IP-100,2013-05-26 13:50:00,
2013-05-26 09:55:00,40.0,39.0,30.04,North,360,9.0,13.0,96,0.00,,,0.00,Rainwise IP-100,2013-05-26 13:55:00,
2013-05-26 10:07:00,40.0,39.0,30.04,NW,315,8.0,0.0,96,0.00,,,0.00,Rainwise IP-100,2013-05-26 14:07:00,
2013-05-26 10:12:00,40.0,39.0,30.04,NNW,337,7.0,10.0,96,0.00,,,0.00,Rainwise IP-100,2013-05-26 14:12:00,
2013-05-26 10:17:00,40.0,39.0,30.04,NNW,337,6.0,12.0,96,0.00,,,0.00,Rainwise IP-100,2013-05-26 14:17:00,
2013-05-26 10:22:00,40.0,39.0,30.04,North,360,6.0,9.0,96,0.06,,,0.01,Rainwise IP-100,2013-05-26 14:22:00,
2013-05-26 10:27:00,40.0,39.0,30.04,WNW,292,11.0,11.0,96,0.06,,,0.01,Rainwise IP-100,2013-05-26 14:27:00,
2013-05-26 10:32:00,40.0,39.0,30.04,NW,315,9.0,12.0,96,0.00,,,0.01,Rainwise IP-100,2013-05-26 14:32:00,
2013-05-26 10:37:00,40.0,39.0,30.04,NNW,337,7.0,12.0,96,0.00,,,0.01,Rainwise IP-100,2013-05-26 14:37:00,
2013-05-26 10:42:00,40.0,39.0,30.04,NW,315,8.0,12.0,96,0.00,,,0.01,Rainwise IP-100,2013-05-26 14:42:00,
2013-05-26 10:47:00,40.0,39.0,30.04,NNW,337,7.0,12.0,96,0.00,,,0.01,Rainwise IP-100,2013-05-26 14:47:00,
2013-05-26 10:52:00,40.0,39.0,30.04,WNW,292,9.0,15.0,96,0.00,,,0.01,Rainwise IP-100,2013-05-26 14:52:00,
2013-05-26 10:57:00,40.0,39.0,30.04,NNW,337,5.0,16.0,96,0.00,,,0.01,Rainwise IP-100,2013-05-26 14:57:00,
2013-05-26 11:02:00,41.0,40.0,30.04,NNE,22,5.0,13.0,96,0.00,,,0.01,Rainwise IP-100,2013-05-26 15:02:00,
2013-05-26 11:07:00,41.0,40.0,30.04,NW,315,7.0,9.0,96,0.00,,,0.01,Rainwise IP-100,2013-05-26 15:07:00,
2013-05-26 11:12:00,41.0,40.0,30.05,NNW,337,9.0,12.0,96,0.00,,,0.01,Rainwise IP-100,2013-05-26 15:12:00,
2013-05-26 11:17:00,41.0,40.0,30.05,NW,315,7.0,15.0,96,0.00,,,0.01,Rainwise IP-100,2013-05-26 15:17:00,
2013-05-26 11:22:00,42.0,41.0,30.04,NW,315,7.0,16.0,95,0.00,,,0.01,Rainwise IP-100,2013-05-26 15:22:00,
2013-05-26 11:27:00,41.0,39.0,30.04,NNW,337,9.0,16.0,93,0.00,,,0.01,Rainwise IP-100,2013-05-26 15:27:00,
2013-05-26 11:32:00,42.0,40.0,30.04,NW,315,9.0,11.0,94,0.00,,,0.01,Rainwise IP-100,2013-05-26 15:32:00,
2013-05-26 11:37:00,41.0,39.0,30.04,NNW,337,12.0,17.0,92,0.00,,,0.01,Rainwise IP-100,2013-05-26 15:37:00,
2013-05-26 11:42:00,42.0,40.0,30.05,North,360,7.0,12.0,94,0.00,,,0.01,Rainwise IP-100,2013-05-26 15:42:00,
2013-05-26 11:47:00,41.0,39.0,30.05,NNW,337,7.0,15.0,91,0.00,,,0.01,Rainwise IP-100,2013-05-26 15:47:00,
2013-05-26 11:52:00,41.0,39.0,30.05,NNW,337,14.0,19.0,92,0.00,,,0.01,Rainwise IP-100,2013-05-26 15:52:00,
2013-05-26 11:57:00,41.0,39.0,30.05,NNW,337,14.0,16.0,92,0.00,,,0.01,Rainwise IP-100,2013-05-26 15:57:00,
2013-05-26 12:02:00,42.0,41.0,30.05,NNW,337,13.0,17.0,96,0.00,,,0.01,Rainwise IP-100,2013-05-26 16:02:00,
2013-05-26 12:07:00,41.0,40.0,30.05,NW,315,8.0,17.0,95,0.00,,,0.01,Rainwise IP-100,2013-05-26 16:07:00,
2013-05-26 12:12:00,41.0,40.0,30.05,NNW,337,8.0,15.0,95,0.00,,,0.01,Rainwise IP-100,2013-05-26 16:12:00,
2013-05-26 12:17:00,42.0,41.0,30.06,NNW,337,3.0,11.0,96,0.00,,,0.01,Rainwise IP-100,2013-05-26 16:17:00,
2013-05-26 12:22:00,42.0,41.0,30.06,NNW,337,9.0,10.0,96,0.00,,,0.01,Rainwise IP-100,2013-05-26 16:22:00,
2013-05-26 12:27:00,42.0,41.0,30.06,North,360,6.0,10.0,96,0.00,,,0.01,Rainwise IP-100,2013-05-26 16:27:00,
2013-05-26 12:32:00,42.0,41.0,30.06,NNW,337,9.0,10.0,95,0.00,,,0.01,Rainwise IP-100,2013-05-26 16:32:00,
2013-05-26 12:37:00,42.0,40.0,30.07,NW,315,12.0,16.0,93,0.00,,,0.01,Rainwise IP-100,2013-05-26 16:37:00,
2013-05-26 12:42:00,43.0,40.0,30.07,North,360,9.0,19.0,89,0.00,,,0.01,Rainwise IP-100,2013-05-26 16:42:00,
2013-05-26 12:47:00,43.0,40.0,30.07,NNE,22,7.0,10.0,90,0.00,,,0.01,Rainwise IP-100,2013-05-26 16:47:00,
2013-05-26 12:52:00,43.0,41.0,30.07,NW,315,7.0,15.0,93,0.00,,,0.01,Rainwise IP-100,2013-05-26 16:52:00,
2013-05-26 12:57:00,43.0,40.0,30.07,North,360,9.0,20.0,91,0.00,,,0.01,Rainwise IP-100,2013-05-26 16:57:00,
2013-05-26 13:02:00,43.0,39.0,30.07,NNW,337,11.0,20.0,87,0.00,,,0.01,Rainwise IP-100,2013-05-26 17:02:00,
2013-05-26 13:07:00,43.0,40.0,30.07,North,360,6.0,15.0,91,0.00,,,0.01,Rainwise IP-100,2013-05-26 17:07:00,
2013-05-26 13:12:00,43.0,40.0,30.07,NNW,337,9.0,13.0,90,0.00,,,0.01,Rainwise IP-100,2013-05-26 17:12:00,
2013-05-26 13:17:00,43.0,41.0,30.07,NW,315,7.0,13.0,92,0.00,,,0.01,Rainwise IP-100,2013-05-26 17:17:00,
2013-05-26 13:22:00,43.0,41.0,30.08,East,90,8.0,16.0,92,0.00,,,0.01,Rainwise IP-100,2013-05-26 17:22:00,
2013-05-26 13:27:00,43.0,40.0,30.08,NW,315,9.0,11.0,91,0.00,,,0.01,Rainwise IP-100,2013-05-26 17:27:00,
2013-05-26 13:32:00,43.0,40.0,30.08,NW,315,10.0,15.0,91,0.00,,,0.01,Rainwise IP-100,2013-05-26 17:32:00,
2013-05-26 13:37:00,43.0,41.0,30.08,NW,315,10.0,15.0,92,0.00,,,0.01,Rainwise IP-100,2013-05-26 17:37:00,
2013-05-26 13:42:00,43.0,41.0,30.08,NNW,337,6.0,16.0,92,0.00,,,0.01,Rainwise IP-100,2013-05-26 17:42:00,
2013-05-26 13:46:00,43.0,41.0,30.08,NNE,22,6.0,10.0,92,0.00,,,0.01,Rainwise IP-100,2013-05-26 17:46:00,
2013-05-26 13:51:00,43.0,40.0,30.08,North,360,10.0,12.0,90,0.00,,,0.01,Rainwise IP-100,2013-05-26 17:51:00,
2013-05-26 13:56:00,43.0,40.0,30.08,North,360,5.0,16.0,91,0.00,,,0.01,Rainwise IP-100,2013-05-26 17:56:00,
2013-05-26 14:01:00,43.0,41.0,30.09,NW,315,8.0,12.0,94,0.00,,,0.01,Rainwise IP-100,2013-05-26 18:01:00,
2013-05-26 14:06:00,43.0,42.0,30.09,North,360,7.0,17.0,95,0.00,,,0.01,Rainwise IP-100,2013-05-26 18:06:00,
2013-05-26 14:11:00,43.0,41.0,30.09,NNW,337,9.0,11.0,93,0.00,,,0.01,Rainwise IP-100,2013-05-26 18:11:00,
2013-05-26 14:16:00,43.0,40.0,30.09,NNW,337,12.0,17.0,91,0.00,,,0.01,Rainwise IP-100,2013-05-26 18:16:00,
2013-05-26 14:21:00,43.0,41.0,30.09,WNW,292,6.0,17.0,92,0.00,,,0.01,Rainwise IP-100,2013-05-26 18:21:00,
2013-05-26 14:26:00,43.0,40.0,30.09,NNW,337,6.0,10.0,91,0.00,,,0.01,Rainwise IP-100,2013-05-26 18:26:00,
2013-05-26 14:31:00,43.0,41.0,30.09,NW,315,1.0,9.0,93,0.00,,,0.01,Rainwise IP-100,2013-05-26 18:31:00,
2013-05-26 14:36:00,43.0,41.0,30.09,NNW,337,7.0,12.0,94,0.00,,,0.01,Rainwise IP-100,2013-05-26 18:36:00,
2013-05-26 14:41:00,43.0,41.0,30.10,North,360,8.0,9.0,94,0.00,,,0.01,Rainwise IP-100,2013-05-26 18:41:00,
2013-05-26 14:46:00,43.0,42.0,30.10,North,360,0.0,8.0,95,0.00,,,0.01,Rainwise IP-100,2013-05-26 18:46:00,
2013-05-26 14:51:00,43.0,41.0,30.10,SE,135,1.0,6.0,94,0.00,,,0.01,Rainwise IP-100,2013-05-26 18:51:00,
2013-05-26 14:56:00,44.0,42.0,30.09,North,360,2.0,8.0,94,0.00,,,0.01,Rainwise IP-100,2013-05-26 18:56:00,
2013-05-26 15:01:00,44.0,42.0,30.10,NNW,337,7.0,11.0,92,0.00,,,0.01,Rainwise IP-100,2013-05-26 19:01:00,
2013-05-26 15:06:00,44.0,42.0,30.10,North,360,7.0,10.0,93,0.00,,,0.01,Rainwise IP-100,2013-05-26 19:06:00,
2013-05-26 15:11:00,44.0,42.0,30.10,NE,45,5.0,12.0,93,0.00,,,0.01,Rainwise IP-100,2013-05-26 19:11:00,
2013-05-26 15:16:00,44.0,42.0,30.10,NW,315,7.0,19.0,92,0.00,,,0.01,Rainwise IP-100,2013-05-26 19:16:00,
2013-05-26 15:21:00,44.0,41.0,30.11,NW,315,6.0,15.0,90,0.00,,,0.01,Rainwise IP-100,2013-05-26 19:21:00,
2013-05-26 15:26:00,44.0,41.0,30.11,NW,315,6.0,12.0,88,0.00,,,0.01,Rainwise IP-100,2013-05-26 19:26:00,
2013-05-26 15:31:00,45.0,41.0,30.10,NE,45,3.0,10.0,88,0.00,,,0.01,Rainwise IP-100,2013-05-26 19:31:00,
2013-05-26 15:36:00,45.0,41.0,30.10,NE,45,6.0,13.0,88,0.00,,,0.01,Rainwise IP-100,2013-05-26 19:36:00,
2013-05-26 15:41:00,45.0,41.0,30.11,West,270,2.0,11.0,86,0.00,,,0.01,Rainwise IP-100,2013-05-26 19:41:00,
2013-05-26 15:46:00,45.0,42.0,30.11,NNW,337,3.0,10.0,89,0.00,,,0.01,Rainwise IP-100,2013-05-26 19:46:00,
2013-05-26 15:51:00,44.0,42.0,30.12,NW,315,10.0,14.0,92,0.00,,,0.01,Rainwise IP-100,2013-05-26 19:51:00,
2013-05-26 15:56:00,44.0,43.0,30.12,NNW,337,9.0,12.0,95,0.00,,,0.01,Rainwise IP-100,2013-05-26 19:56:00,
2013-05-26 16:01:00,44.0,42.0,30.13,NNW,337,9.0,10.0,92,0.00,,,0.01,Rainwise IP-100,2013-05-26 20:01:00,
2013-05-26 16:06:00,44.0,42.0,30.13,WNW,292,9.0,16.0,93,0.00,,,0.01,Rainwise IP-100,2013-05-26 20:06:00,
2013-05-26 16:11:00,44.0,41.0,30.13,NW,315,10.0,17.0,91,0.00,,,0.01,Rainwise IP-100,2013-05-26 20:11:00,
2013-05-26 16:16:00,44.0,42.0,30.13,NNW,337,7.0,17.0,93,0.00,,,0.01,Rainwise IP-100,2013-05-26 20:16:00,
2013-05-26 16:21:00,44.0,42.0,30.13,NNW,337,7.0,16.0,93,0.00,,,0.01,Rainwise IP-100,2013-05-26 20:21:00,
2013-05-26 16:26:00,43.0,40.0,30.13,NNW,337,12.0,23.0,91,0.00,,,0.01,Rainwise IP-100,2013-05-26 20:26:00,
2013-05-26 16:31:00,44.0,42.0,30.13,NW,315,4.0,23.0,93,0.00,,,0.01,Rainwise IP-100,2013-05-26 20:31:00,
2013-05-26 16:36:00,44.0,42.0,30.13,NW,315,6.0,17.0,92,0.00,,,0.01,Rainwise IP-100,2013-05-26 20:36:00,
2013-05-26 16:41:00,44.0,42.0,30.14,WNW,292,9.0,21.0,92,0.00,,,0.01,Rainwise IP-100,2013-05-26 20:41:00,
2013-05-26 16:46:00,44.0,42.0,30.14,NW,315,12.0,13.0,93,0.00,,,0.01,Rainwise IP-100,2013-05-26 20:46:00,
2013-05-26 16:51:00,43.0,41.0,30.14,NNW,337,15.0,18.0,94,0.00,,,0.01,Rainwise IP-100,2013-05-26 20:51:00,
2013-05-26 16:56:00,43.0,41.0,30.14,North,360,9.0,21.0,94,0.00,,,0.01,Rainwise IP-100,2013-05-26 20:56:00,
2013-05-26 17:01:00,43.0,42.0,30.15,NW,315,9.0,23.0,96,0.00,,,0.01,Rainwise IP-100,2013-05-26 21:01:00,
2013-05-26 17:06:00,43.0,42.0,30.15,NW,315,12.0,21.0,96,0.00,,,0.01,Rainwise IP-100,2013-05-26 21:06:00,
2013-05-26 17:11:00,43.0,42.0,30.15,NNW,337,9.0,18.0,96,0.00,,,0.01,Rainwise IP-100,2013-05-26 21:11:00,
2013-05-26 17:16:00,43.0,42.0,30.15,NW,315,10.0,22.0,96,0.00,,,0.01,Rainwise IP-100,2013-05-26 21:16:00,
2013-05-26 17:21:00,43.0,42.0,30.16,NW,315,15.0,19.0,95,0.06,,,0.02,Rainwise IP-100,2013-05-26 21:21:00,
2013-05-26 17:26:00,43.0,42.0,30.16,North,360,16.0,25.0,96,0.06,,,0.02,Rainwise IP-100,2013-05-26 21:26:00,
2013-05-26 17:31:00,43.0,42.0,30.17,NNE,22,11.0,17.0,95,0.00,,,0.02,Rainwise IP-100,2013-05-26 21:31:00,
2013-05-26 17:36:00,43.0,42.0,30.17,North,360,6.0,26.0,95,0.00,,,0.02,Rainwise IP-100,2013-05-26 21:36:00,
2013-05-26 17:41:00,44.0,43.0,30.17,NW,315,8.0,15.0,95,0.00,,,0.02,Rainwise IP-100,2013-05-26 21:41:00,
2013-05-26 17:46:00,44.0,43.0,30.17,North,360,9.0,19.0,95,0.00,,,0.02,Rainwise IP-100,2013-05-26 21:46:00,
2013-05-26 17:51:00,44.0,43.0,30.17,NNW,337,8.0,18.0,96,0.00,,,0.02,Rainwise IP-100,2013-05-26 21:51:00,
2013-05-26 17:56:00,44.0,43.0,30.17,NW,315,10.0,19.0,95,0.00,,,0.02,Rainwise IP-100,2013-05-26 21:56:00,
2013-05-26 18:01:00,45.0,44.0,30.16,North,360,7.0,19.0,95,0.00,,,0.02,Rainwise IP-100,2013-05-26 22:01:00,
2013-05-26 18:06:00,45.0,41.0,30.16,North,360,9.0,12.0,88,0.00,,,0.02,Rainwise IP-100,2013-05-26 22:06:00,
2013-05-26 18:11:00,46.0,42.0,30.17,NNW,337,10.0,16.0,88,0.00,,,0.02,Rainwise IP-100,2013-05-26 22:11:00,
2013-05-26 18:16:00,47.0,43.0,30.17,NW,315,9.0,12.0,87,0.00,,,0.02,Rainwise IP-100,2013-05-26 22:16:00,
2013-05-26 18:21:00,46.0,41.0,30.17,NNW,337,9.0,13.0,83,0.00,,,0.02,Rainwise IP-100,2013-05-26 22:21:00,
2013-05-26 18:26:00,45.0,41.0,30.17,NE,45,5.0,15.0,85,0.00,,,0.02,Rainwise IP-100,2013-05-26 22:26:00,
2013-05-26 18:31:00,45.0,40.0,30.18,NE,45,6.0,16.0,84,0.00,,,0.02,Rainwise IP-100,2013-05-26 22:31:00,
2013-05-26 18:36:00,45.0,40.0,30.18,NNW,337,9.0,13.0,84,0.00,,,0.02,Rainwise IP-100,2013-05-26 22:36:00,
2013-05-26 18:41:00,46.0,40.0,30.18,North,360,11.0,12.0,82,0.00,,,0.02,Rainwise IP-100,2013-05-26 22:41:00,
2013-05-26 18:46:00,45.0,40.0,30.18,NNE,22,4.0,11.0,84,0.00,,,0.02,Rainwise IP-100,2013-05-26 22:46:00,
2013-05-26 18:51:00,46.0,41.0,30.18,NNE,22,5.0,7.0,83,0.00,,,0.02,Rainwise IP-100,2013-05-26 22:51:00,
2013-05-26 18:56:00,47.0,41.0,30.18,North,360,7.0,7.0,82,0.00,,,0.02,Rainwise IP-100,2013-05-26 22:56:00,
2013-05-26 19:01:00,46.0,40.0,30.18,NNE,22,4.0,11.0,81,0.00,,,0.02,Rainwise IP-100,2013-05-26 23:01:00,
2013-05-26 19:06:00,46.0,40.0,30.18,North,360,8.0,10.0,82,0.00,,,0.02,Rainwise IP-100,2013-05-26 23:06:00,
2013-05-26 19:11:00,46.0,41.0,30.18,NNE,22,2.0,8.0,84,0.00,,,0.02,Rainwise IP-100,2013-05-26 23:11:00,
2013-05-26 19:16:00,45.0,40.0,30.18,North,360,3.0,9.0,83,0.00,,,0.02,Rainwise IP-100,2013-05-26 23:16:00,
2013-05-26 19:21:00,45.0,41.0,30.18,North,360,2.0,8.0,85,0.00,,,0.02,Rainwise IP-100,2013-05-26 23:21:00,
2013-05-26 19:26:00,45.0,40.0,30.19,North,360,6.0,6.0,84,0.00,,,0.02,Rainwise IP-100,2013-05-26 23:26:00,
2013-05-26 19:31:00,45.0,41.0,30.19,NNE,22,2.0,10.0,85,0.00,,,0.02,Rainwise IP-100,2013-05-26 23:31:00,
2013-05-26 19:36:00,46.0,41.0,30.19,North,360,1.0,5.0,85,0.00,,,0.02,Rainwise IP-100,2013-05-26 23:36:00,
2013-05-26 19:41:00,46.0,41.0,30.19,NNW,337,4.0,4.0,84,0.00,,,0.02,Rainwise IP-100,2013-05-26 23:41:00,
2013-05-26 19:46:00,47.0,41.0,30.19,SW,225,4.0,7.0,82,0.00,,,0.02,Rainwise IP-100,2013-05-26 23:46:00,
2013-05-26 19:51:00,47.0,41.0,30.18,NW,315,4.0,5.0,82,0.00,,,0.02,Rainwise IP-100,2013-05-26 23:51:00,
2013-05-26 19:52:00,46.0,41.0,30.18,NW,315,2.0,5.0,83,0.00,,,0.02,Rainwise IP-100,2013-05-26 23:52:00,
2013-05-26 19:57:00,46.0,41.0,30.18,NNW,337,1.0,6.0,85,0.00,,,0.02,Rainwise IP-100,2013-05-26 23:57:00,
2013-05-26 20:02:00,45.0,41.0,30.20,NNW,337,5.0,5.0,87,0.00,,,0.02,Rainwise IP-100,2013-05-27 00:02:00,
2013-05-26 20:07:00,44.0,42.0,30.20,NNW,337,2.0,6.0,93,0.00,,,0.02,Rainwise IP-100,2013-05-27 00:07:00,
2013-05-26 20:12:00,43.0,41.0,30.20,NNW,337,6.0,7.0,92,0.00,,,0.02,Rainwise IP-100,2013-05-27 00:12:00,
2013-05-26 20:17:00,43.0,40.0,30.20,NE,45,6.0,9.0,89,0.00,,,0.02,Rainwise IP-100,2013-05-27 00:17:00,
2013-05-26 20:22:00,43.0,40.0,30.20,NNW,337,6.0,9.0,89,0.00,,,0.02,Rainwise IP-100,2013-05-27 00:22:00,
2013-05-26 20:27:00,43.0,40.0,30.20,NNW,337,3.0,8.0,89,0.00,,,0.02,Rainwise IP-100,2013-05-27 00:27:00,
2013-05-26 20:32:00,43.0,40.0,30.19,North,360,2.0,7.0,91,0.00,,,0.02,Rainwise IP-100,2013-05-27 00:32:00,
2013-05-26 20:37:00,42.0,40.0,30.19,NW,315,3.0,6.0,94,0.00,,,0.02,Rainwise IP-100,2013-05-27 00:37:00,
2013-05-26 20:42:00,42.0,41.0,30.19,NW,315,1.0,4.0,95,0.00,,,0.02,Rainwise IP-100,2013-05-27 00:42:00,
2013-05-26 20:47:00,42.0,41.0,30.20,North,360,2.0,4.0,96,0.00,,,0.02,Rainwise IP-100,2013-05-27 00:47:00,
2013-05-26 20:52:00,41.0,40.0,30.21,SSE,157,3.0,4.0,96,0.00,,,0.02,Rainwise IP-100,2013-05-27 00:52:00,
2013-05-26 20:57:00,41.0,40.0,30.21,SE,135,5.0,5.0,96,0.00,,,0.02,Rainwise IP-100,2013-05-27 00:57:00,
2013-05-26 21:02:00,41.0,40.0,30.21,South,180,3.0,6.0,96,0.00,,,0.02,Rainwise IP-100,2013-05-27 01:02:00,
2013-05-26 21:07:00,41.0,40.0,30.21,SSE,157,4.0,5.0,96,0.00,,,0.02,Rainwise IP-100,2013-05-27 01:07:00,
2013-05-26 21:12:00,40.0,39.0,30.20,SSE,157,5.0,7.0,96,0.00,,,0.02,Rainwise IP-100,2013-05-27 01:12:00,
2013-05-26 21:17:00,40.0,39.0,30.20,SE,135,6.0,7.0,96,0.00,,,0.02,Rainwise IP-100,2013-05-27 01:17:00,
2013-05-26 21:22:00,40.0,39.0,30.21,SSE,157,7.0,7.0,96,0.00,,,0.02,Rainwise IP-100,2013-05-27 01:22:00,
2013-05-26 21:27:00,39.0,38.0,30.21,SE,135,6.0,9.0,96,0.00,,,0.02,Rainwise IP-100,2013-05-27 01:27:00,
2013-05-26 21:32:00,39.0,38.0,30.21,SSE,157,5.0,8.0,96,0.00,,,0.02,Rainwise IP-100,2013-05-27 01:32:00,
2013-05-26 21:37:00,39.0,38.0,30.21,SSE,157,5.0,6.0,96,0.00,,,0.02,Rainwise IP-100,2013-05-27 01:37:00,
2013-05-26 21:42:00,39.0,38.0,30.21,SE,135,6.0,7.0,96,0.00,,,0.02,Rainwise IP-100,2013-05-27 01:42:00,
2013-05-26 21:47:00,38.0,37.0,30.21,SSE,157,7.0,8.0,96,0.00,,,0.02,Rainwise IP-100,2013-05-27 01:47:00,
2013-05-26 21:52:00,38.0,37.0,30.22,SSE,157,5.0,9.0,96,0.00,,,0.02,Rainwise IP-100,2013-05-27 01:52:00,
2013-05-26 21:57:00,38.0,37.0,30.22,South,180,6.0,9.0,96,0.00,,,0.02,Rainwise IP-100,2013-05-27 01:57:00,
2013-05-26 22:02:00,38.0,37.0,30.21,South,180,6.0,7.0,96,0.00,,,0.02,Rainwise IP-100,2013-05-27 02:02:00,
2013-05-26 22:07:00,38.0,37.0,30.21,South,180,6.0,7.0,96,0.00,,,0.02,Rainwise IP-100,2013-05-27 02:07:00,
2013-05-26 22:12:00,38.0,37.0,30.21,South,180,6.0,7.0,96,0.00,,,0.02,Rainwise IP-100,2013-05-27 02:12:00,
2013-05-26 22:17:00,38.0,37.0,30.21,SSW,202,4.0,7.0,96,0.00,,,0.02,Rainwise IP-100,2013-05-27 02:17:00,
2013-05-26 22:22:00,37.0,36.0,30.22,SW,225,5.0,6.0,96,0.00,,,0.02,Rainwise IP-100,2013-05-27 02:22:00,
2013-05-26 22:27:00,37.0,36.0,30.22,SW,225,3.0,6.0,96,0.00,,,0.02,Rainwise IP-100,2013-05-27 02:27:00,
2013-05-26 22:32:00,37.0,36.0,30.22,SW,225,6.0,7.0,96,0.00,,,0.02,Rainwise IP-100,2013-05-27 02:32:00,
2013-05-26 22:37:00,37.0,36.0,30.22,SW,225,6.0,6.0,96,0.00,,,0.02,Rainwise IP-100,2013-05-27 02:37:00,
2013-05-26 22:42:00,37.0,36.0,30.22,SW,225,2.0,6.0,96,0.00,,,0.02,Rainwise IP-100,2013-05-27 02:42:00,
2013-05-26 22:47:00,37.0,36.0,30.22,SW,225,3.0,5.0,96,0.00,,,0.02,Rainwise IP-100,2013-05-27 02:47:00,
2013-05-26 22:52:00,38.0,37.0,30.22,SW,225,6.0,6.0,96,0.00,,,0.02,Rainwise IP-100,2013-05-27 02:52:00,
2013-05-26 22:57:00,38.0,37.0,30.22,SSW,202,6.0,6.0,96,0.00,,,0.02,Rainwise IP-100,2013-05-27 02:57:00,
2013-05-26 23:02:00,38.0,37.0,30.22,South,180,6.0,7.0,96,0.00,,,0.02,Rainwise IP-100,2013-05-27 03:02:00,
2013-05-26 23:07:00,37.0,36.0,30.22,South,180,5.0,7.0,96,0.00,,,0.02,Rainwise IP-100,2013-05-27 03:07:00,
2013-05-26 23:12:00,37.0,36.0,30.22,South,180,5.0,7.0,96,0.00,,,0.02,Rainwise IP-100,2013-05-27 03:12:00,
2013-05-26 23:17:00,36.0,35.0,30.22,South,180,5.0,9.0,95,0.00,,,0.02,Rainwise IP-100,2013-05-27 03:17:00,
2013-05-26 23:22:00,37.0,36.0,30.22,South,180,7.0,10.0,96,0.00,,,0.02,Rainwise IP-100,2013-05-27 03:22:00,
2013-05-26 23:27:00,36.0,35.0,30.22,South,180,8.0,9.0,95,0.00,,,0.02,Rainwise IP-100,2013-05-27 03:27:00,
2013-05-26 23:32:00,36.0,35.0,30.22,SSW,202,7.0,8.0,95,0.00,,,0.02,Rainwise IP-100,2013-05-27 03:32:00,
2013-05-26 23:37:00,37.0,36.0,30.23,South,180,6.0,8.0,96,0.00,,,0.02,Rainwise IP-100,2013-05-27 03:37:00,
2013-05-26 23:42:00,37.0,36.0,30.22,South,180,8.0,8.0,96,0.00,,,0.02,Rainwise IP-100,2013-05-27 03:42:00,
2013-05-26 23:47:00,37.0,36.0,30.22,SW,225,4.0,9.0,96,0.00,,,0.02,Rainwise IP-100,2013-05-27 03:47:00,
2013-05-26 23:52:00,37.0,36.0,30.21,SW,225,3.0,6.0,96,0.00,,,0.02,Rainwise IP-100,2013-05-27 03:52:00,
2013-05-26 23:57:00,36.0,35.0,30.21,SW,225,4.0,6.0,95,0.00,,,0.02,Rainwise IP-100,2013-05-27 03:57:00,